Airfield :
LOGIN :

Register | Disclaimer

   EN    FR    IT 

 










Legend :    VFR   Marginal VFR   IFR   Intensive IFR   Very Intensive IFR
Visi :
Ceiling :
>= 8 km
>= 3000ft
5 to 8 km
1000 to 3000 ft
1500m to 5 km
500 to 1000 ft
800 to 1500m
200 to 500 ft
< 800m
< 200 ft
Symbols :   Thunderstorms  Fog  Heavy snow  Heavy precipitations  Wind > 20 kt
SIGMETs :     Misc.  Thunderstorms  Icing  Turbulence  Mountain Waves  Volcanic Ashes







- Airport Elevation : 3 ft
- IATA code : LWR


EHLW - Leuuwarden Air Base

CURRENT METAR :
  • 182255Z AUTO 29011KT 9999 FEW065 07/01 Q1012 BLU

EXPIRED METARs :
  • 182225Z AUTO 30010KT 9999 FEW071 07/01 Q1012 BLU
  • 182155Z AUTO 29010KT 9999 BKN069 06/02 Q1012 REDZ BLU
  • 182136Z AUTO 29011KT 250V310 9999 FEW044 SCT050 BKN062 06/02 Q1013 BLU
  • 182125Z AUTO 29012KT 260V320 9999 +DZ FEW018CB SCT050 BKN067 06/02 Q1013 BLU
  • 182055Z AUTO 30011KT 260V320 9999 FEW040 SCT059 BKN066 07/00 Q1013 BLU
  • 182025Z AUTO 30013G25KT 9999 FEW066 06/01 Q1013 BLU

Expired Forecast.
No reported NOTAMs for that airfield.



MET'MAP, your aeronautical weather chart ! - Copyright ORBIFLY December 2007 - Disclaimer

ORBIFLY MET'MAP TEAM :

Programming & Development : Alexandra Zaïnal
Concept & Development : Baudouin d'Aumeries
Co-Development & Prog : Marc-Olivier Méhu
Technical & hardware support : Manuel Goepfert

Contact : metmap@orbifly.com




SOURCES & CREDITS :

   NOAA